Regional Weather Roundup
Issued by NWS

Home | Current Version | Previous Version | Text Only | Print | Product List | Glossary Off
Versions: 1 2 3 4 5 6 7 8 9 10 11 12 13 14 15 16 17 18 19 20 21 22 23 24 25 26 27 28 29 30 31 32 33 34 35 36 37 38 39 40 41 42 43 44 45 46 47 48 49 50

851
ASUS43 KLOT 281308
RWRIL

ILLINOIS REGIONAL WEATHER ROUNDUP
NATIONAL WEATHER SERVICE CHICAGO/ROMEOVILLE IL
800 AM CDT WED JUN 28 2017

NOTE: "FAIR" INDICATES FEW OR NO CLOUDS BELOW 12,000 FEET WITH NO
SIGNIFICANT WEATHER AND/OR OBSTRUCTIONS TO VISIBILITY.

* THESE STATIONS ARE NOT UNDER NWS QUALITY CONTROL. THEY ALSO MAY NOT
  REPORT WEATHER SUCH AS PRECIPITATION OR FOG.

ILZ001-002-007-009-015-016-024-281400-
NORTHWEST ILLINOIS

CITY           SKY/WX    TMP DP  RH WIND       PRES   REMARKS
MOLINE         TSTM      64  61  90 CALM      29.93R FOG
STERLING*      CLOUDY    66  57  72 S7        29.94R
SAVANNA*       RAIN      65  60  85 SW10      29.94R
$$

ILZ003-004-008-010-011-017-018-281400-
NORTH CENTRAL ILLINOIS

CITY           SKY/WX    TMP DP  RH WIND       PRES   REMARKS
ROCKFORD       CLOUDY    66  53  63 S13       29.96R
FREEPORT*      LGT RAIN  62  56  81 S13G18    29.94R
ROCHELLE*      CLOUDY    64  53  67 S14       29.96R
DE KALB*       CLOUDY    62  52  70 S13       30.00R
PERU*          CLOUDY    64  52  65 S16       29.97S
$$

ILZ005-006-012>014-019>023-281400-
NORTHEAST ILLINOIS

CITY           SKY/WX    TMP DP  RH WIND       PRES   REMARKS
CHICAGO-OHARE  CLOUDY    66  49  54 S14       29.99R
CHICAGO-MIDWAY CLOUDY    67  49  52 S13       30.01R
AURORA         CLOUDY    63  51  65 S14       30.00R
LANSING*       PTSUNNY   64  49  57 S9        30.04R
JOLIET*        CLOUDY    65  52  62 S7        30.02R
WAUKEGAN       CLOUDY    65  50  58 S12       29.98R
DUPAGE AIRPORT CLOUDY    63  52  67 S13       29.99R
WHEELING       CLOUDY    66  51  58 S13       30.00R
MORRIS*        CLOUDY    64  51  63 S10       30.00R
ROMEOVILLE*    CLOUDY    64  48  55 S15       30.01S
$$

LMZ740>746-281400-
SOUTHERN LAKE MICHIGAN

STATION/POSITION SKY/WX   TEMP    WIND        PRES    VSBY  WAVE
                          AIR SEA DIR/SP/G                  HT/PER
                          (F)     (DEG/KT/KT) (MB)    (MI)  (FT/S)
SOUTHERN BUOY              63 61  180/ 16/ 21 1015.1          2/ 4
WILMETTE HARBOR            66 63  190/ 14/ 17   N/A           2/ 4
HARRISON CRIB              66     190/ 20/ 23   N/A
BURNHAM HARBOR             67                   N/A
CALUMET HARBOR             66     180/ 10/ 13 1016.3R
BURNS HARBOR               65     180/ 13/ 18 1017.3R
MICHIGAN CITY              65     160/ 14/ 16   N/A
MICHIGAN CITY 6N           65 66  180/ 16/ 21   N/A           2/ 2
ST. JOSEPH                 66 68  170/ 14/ 21 1017.1          2/ 3
$$

ILZ025>027-034>036-040-047-049-050-058-095>099-281400-
WEST-CENTRAL ILLINOIS

CITY           SKY/WX    TMP DP  RH WIND       PRES   REMARKS
QUINCY         CLOUDY    71  63  75 S15       29.95R
GALESBURG*     CLOUDY    67  59  75 S15G22    29.94S
MACOMB*        CLOUDY    68  60  75 S14G23    29.97R
JACKSONVILLE*  CLOUDY    68  59  72 S13G18    30.00R
PITTSFIELD*    PTSUNNY   69  63  80 S8        30.01R
$$

ILZ028>032-037-038-041>044-048-051>054-059>061-281400-
CENTRAL ILLINOIS

CITY           SKY/WX    TMP DP  RH WIND       PRES   REMARKS
PONTIAC        CLOUDY    65  54  67 S15G21    30.02S
BLOOMINGTON    CLOUDY    63  54  72 S15       30.04R
DECATUR        CLOUDY    66  53  63 S12       30.05S
PEORIA         CLOUDY    65  56  72 S14       29.98R
LACON*         CLOUDY    64  55  71 S9        29.97R
LINCOLN*       PTSUNNY   66  56  70 S14       30.02R
SPRINGFIELD    CLOUDY    68  58  70 S10       30.02R
TAYLORVILLE    CLOUDY    66  55  68 S13       30.05R
$$

ILZ033-039-045-046-055>057-062-063-281400-
EAST-CENTRAL ILLINOIS

CITY           SKY/WX    TMP DP  RH WIND       PRES   REMARKS
CHAMPAIGN      CLOUDY    66  51  58 S13       30.07R
RANTOUL*       CLOUDY    65  54  66 S9        30.08R
MATTOON        CLOUDY    64  56  75 S8        30.08R
PARIS*         CLOUDY    63  55  75 S8        30.11R
$$

ILZ079-100>102-281400-
SOUTHWEST ILLINOIS

CITY           SKY/WX    TMP DP  RH WIND       PRES   REMARKS
ALTON          PTSUNNY   66  61  82 SE7       30.04S
BELLEVILLE     PTSUNNY   66  59  79 S7        30.06S
CAHOKIA*       PTSUNNY   69  58  67 S6        30.04R
SPARTA*        MOSUNNY   66  58  75 SE5       30.08R
$$

ILZ064>066-069>071-074>076-080>082-084>086-088>090-092>094-281400-
SOUTH-CENTRAL ILLINOIS

CITY           SKY/WX    TMP DP  RH WIND       PRES   REMARKS
CARBONDALE     CLOUDY    69  60  73 S8        30.08R
CAIRO*         SUNNY     72  61  69 S6        30.09R
EFFINGHAM*     CLOUDY    65  56  71 SE8       30.11R
MARION         PTSUNNY   70  59  68 SE6       30.09R
MT. VERNON     CLOUDY    68  58  70 S3        30.09R
CENTRALIA*     CLOUDY    67  57  70 S9        30.07R
SALEM*         MOSUNNY   69  54  59 S7        30.08R
METROPOLIS*    SUNNY     70  60  72 CALM      30.10R
$$

ILZ067-068-072-073-078-083-087-091-281400-
SOUTHEAST ILLINOIS

CITY           SKY/WX    TMP DP  RH WIND       PRES   REMARKS
LAWRENCEVILLE  CLOUDY    65  57  75 S7        30.11R
FLORA*         CLOUDY    67  57  70 S8        30.10R
FAIRFIELD*     CLOUDY    67  57  70 S5        30.09R
HARRISBURG*    CLOUDY    67  60  80 CALM      30.10R
ROBINSON*      MOSUNNY   64  55  74 S5        30.11R
CARMI*         CLOUDY    66  60  79 S5        30.10R
$$

ABBREVIATIONS USED IN REMARKS
   TC - TEMPERATURE IN CELSIUS
  WCI - WIND CHILL INDEX
   HX - HEAT INDEX
  VSB - VISIBILITY
$$





USA.gov is the U.S. government's official web portal to all federal, state and local government web resources and services.